Flag for Canada Weather past 2 weeks in Eureka, Nunavut Territory, Canada

Now
23 °F

Passing clouds.


Feels Like: 14 °F
Forecast: 14 / 26 °F
Wind: 8 mph from Northwest

Location: Eureka

Current Time: Sep 19, 2014 at 3:21:40 AM

Latest Report: Sep 19, 2014 at 3:00 AM


Visibility: 15 mi

Pressure: 29.99 "Hg

Humidity: 93%

Dew point: 21 °F

Location of EurekaLocation

Historic Weather in Eureka — Graph

°F

Eureka temperature yesterday

Maximum temperature yesterday: 27 °F (at 12:00 AM)
Minimum temperature yesterday: 25 °F (at 10:00 PM)
Average temperature yesterday: 27 °F

Past Weeks' High & Low Weather Summary

 TemperatureHumidityPressure
High37 °F (Sep 4, 5:00 PM)100% (Sep 18, 2:00 AM)30.03 "Hg (Sep 18, 2:00 AM)
Low18 °F (Sep 14, 6:00 AM)63% (Sep 13, 4:00 PM)29.34 "Hg (Sep 9, 4:00 PM)
Average28 °F79%29.75 "Hg
* Reported Sep 4 2:00 AM — Sep 19 2:00 AM, Eureka, Weather by CustomWeather, © 2014

Note: Actual official high and low records may vary slightly from our data, if they occured in-between our weather recording intervals... More about our weather records

Advertising

Eureka weather history for previous 24 hours

 ConditionsComfort  
Time TempWeatherWind HumidityBarometerVisibility
2:00 AM
Sep 19
23 °FPassing clouds.12 mph100%29.99 "Hg15 mi
1:00 AM23 °FPassing clouds.10 mph100%29.99 "Hg15 mi
12:00 AM25 °FPassing clouds.12 mph93%29.99 "Hg15 mi
11:00 PM
Sep 18
27 °FPassing clouds.12 mph86%30.00 "Hg15 mi
10:00 PM25 °FPassing clouds.12 mph93%30.00 "Hg15 mi
9:00 PM27 °FPassing clouds.9 mph86%30.00 "Hg15 mi
8:00 PM27 °FPassing clouds.12 mph86%30.01 "Hg15 mi
7:00 PM27 °FPartly sunny.8 mph86%30.01 "Hg15 mi
6:00 PM27 °FLight snow. Partly sunny.9 mph93%30.02 "Hg15 mi
5:00 PM27 °FLight snow. Partly sunny.12 mph93%30.02 "Hg15 mi
4:00 PM27 °FLight snow. Broken clouds.14 mph93%30.03 "Hg10 mi
3:00 PM27 °FLight snow. Broken clouds.13 mph93%30.03 "Hg15 mi
2:00 PM27 °FLight snow. Partly sunny.12 mph93%30.03 "Hg10 mi
1:00 PM27 °FPartly sunny.12 mph93%30.03 "Hg15 mi
12:00 PM27 °FOvercast.10 mph93%30.03 "Hg15 mi
11:00 AM27 °FPartly sunny.9 mph86%30.03 "Hg15 mi
10:00 AM27 °FOvercast.14 mph93%30.03 "Hg8 mi
9:00 AM27 °FOvercast.13 mph93%30.03 "Hg10 mi
8:00 AM27 °FOvercast.7 mph93%30.03 "Hg10 mi
7:00 AM27 °FOvercast.7 mph93%30.03 "Hg10 mi
6:00 AM27 °FOvercast.7 mph93%30.03 "Hg10 mi
5:00 AM27 °FOvercast.8 mph93%30.03 "Hg10 mi
4:00 AM27 °FOvercast.7 mph93%30.03 "Hg10 mi
3:00 AM27 °FLight snow. Overcast.6 mph93%30.02 "Hg8 mi
Weather by CustomWeather, © 2014

See weather overviewHow to use our weather pages